SAS75G EKCH-EPGD

Flight info

Callsign SAS75G
Flight time 0h 44m
Altitude 31000
Route SIMEG Z491 TELMO DCT ASBAX DCT RUMAR L983 DOMAG T240 OGDAV
Aircraft A320/M-SDE3FGHIRWY/LB1

Departure

Time 2026-05-05 18:49
Airport Copenhagen Kastrup Airport (EKCH)

Arrival

Time 2026-05-05 19:33
Airport Gdańsk Lech Wałęsa Airport (EPGD)
Time Latitude Longitude Altitude Speed Heading
2026-05-05 18:39 55.62617 12.64658 18 ft 0 kts 191°
2026-05-05 18:40 55.62613 12.64657 18 ft 2 kts 191°
2026-05-05 18:40 55.62549 12.64652 17 ft 16 kts 180°
2026-05-05 18:40 55.62432 12.64674 17 ft 18 kts 171°
2026-05-05 18:41 55.62316 12.64727 17 ft 19 kts 127°
2026-05-05 18:41 55.62215 12.64778 17 ft 12 kts 203°
2026-05-05 18:41 55.62204 12.64765 17 ft 0 kts 213°
2026-05-05 18:41 55.62203 12.64765 17 ft 1 kts 213°
2026-05-05 18:42 55.62191 12.64750 19 ft 4 kts 213°
2026-05-05 18:42 55.62163 12.64718 18 ft 6 kts 213°
2026-05-05 18:42 55.62098 12.64644 20 ft 19 kts 213°
2026-05-05 18:42 55.61962 12.64505 17 ft 20 kts 196°
2026-05-05 18:43 55.61822 12.64532 17 ft 21 kts 170°
2026-05-05 18:43 55.61672 12.64548 17 ft 22 kts 201°
2026-05-05 18:43 55.61540 12.64410 18 ft 22 kts 213°
2026-05-05 18:43 55.61418 12.64271 19 ft 22 kts 213°
2026-05-05 18:44 55.61284 12.64116 18 ft 24 kts 213°
2026-05-05 18:44 55.61137 12.63942 17 ft 27 kts 213°
2026-05-05 18:44 55.61010 12.63799 18 ft 22 kts 212°
2026-05-05 18:44 55.60873 12.63643 19 ft 25 kts 213°
2026-05-05 18:45 55.60735 12.63483 18 ft 24 kts 213°
2026-05-05 18:45 55.60600 12.63312 18 ft 23 kts 220°
2026-05-05 18:45 55.60481 12.63233 18 ft 17 kts 146°
2026-05-05 18:45 55.60458 12.63274 17 ft 0 kts 131°
2026-05-05 18:46 55.60443 12.63303 17 ft 8 kts 131°
2026-05-05 18:47 55.60401 12.63432 18 ft 14 kts 76°
2026-05-05 18:47 55.60452 12.63525 17 ft 0 kts 42°
2026-05-05 18:48 55.60516 12.63627 18 ft 43 kts 41°
2026-05-05 18:48 55.60915 12.64245 18 ft 106 kts 40°
2026-05-05 18:48 55.61597 12.65299 19 ft 153 kts 38°
2026-05-05 18:48 55.62404 12.66526 585 ft 149 kts 37°
2026-05-05 18:49 55.63187 12.67728 1228 ft 149 kts 39°
2026-05-05 18:49 55.63967 12.68931 1835 ft 149 kts 38°
2026-05-05 18:49 55.64779 12.70138 2281 ft 159 kts 39°
2026-05-05 18:49 55.65675 12.71505 2515 ft 181 kts 39°
2026-05-05 18:50 55.66698 12.73046 2778 ft 205 kts 39°
2026-05-05 18:50 55.67849 12.74779 3122 ft 230 kts 39°
2026-05-05 18:50 55.68952 12.77008 3649 ft 250 kts 59°
2026-05-05 18:50 55.69551 12.79944 4511 ft 259 kts 79°
2026-05-05 18:51 55.69502 12.83172 5382 ft 267 kts 102°
2026-05-05 18:51 55.68741 12.86205 6261 ft 274 kts 126°
2026-05-05 18:51 55.67358 12.88490 7054 ft 280 kts 150°
2026-05-05 18:51 55.65556 12.89834 7863 ft 283 kts 162°
2026-05-05 18:52 55.63666 12.90871 8703 ft 285 kts 172°
2026-05-05 18:52 55.61697 12.91054 9538 ft 284 kts 189°
2026-05-05 18:52 55.59767 12.90307 10213 ft 289 kts 204°
2026-05-05 18:52 55.57944 12.88591 10437 ft 307 kts 220°
2026-05-05 18:53 55.56369 12.85926 10805 ft 319 kts 228°
2026-05-05 18:53 55.54574 12.83543 11453 ft 330 kts 209°
2026-05-05 18:53 55.52338 12.82454 12141 ft 341 kts 187°
2026-05-05 18:53 55.49959 12.83016 12840 ft 354 kts 163°
2026-05-05 18:54 55.47836 12.85339 13533 ft 369 kts 138°
2026-05-05 18:54 55.46297 12.89023 14160 ft 378 kts 124°
2026-05-05 18:54 55.44916 12.92986 14768 ft 382 kts 124°
2026-05-05 18:54 55.43541 12.97009 15343 ft 386 kts 124°
2026-05-05 18:55 55.42154 13.01078 15927 ft 389 kts 124°
2026-05-05 18:55 55.40749 13.05180 16509 ft 393 kts 124°
2026-05-05 18:55 55.39328 13.09307 17109 ft 397 kts 124°
2026-05-05 18:55 55.37883 13.13471 17705 ft 400 kts 125°
2026-05-05 18:56 55.36421 13.17661 18291 ft 404 kts 125°
2026-05-05 18:56 55.34940 13.21885 18814 ft 408 kts 125°
2026-05-05 18:56 55.33602 13.26324 19334 ft 417 kts 113°
2026-05-05 18:56 55.32913 13.31317 19880 ft 424 kts 102°
2026-05-05 18:57 55.32408 13.36441 20416 ft 428 kts 101°
2026-05-05 18:57 55.31915 13.41621 20939 ft 432 kts 101°
2026-05-05 18:57 55.31424 13.46851 21435 ft 436 kts 101°
2026-05-05 18:57 55.30929 13.52126 21939 ft 440 kts 101°
2026-05-05 18:58 55.30424 13.57450 22431 ft 444 kts 102°
2026-05-05 18:58 55.29906 13.62818 22913 ft 448 kts 102°
2026-05-05 18:58 55.29376 13.68222 23396 ft 452 kts 102°
2026-05-05 18:58 55.28834 13.73670 23808 ft 455 kts 102°
2026-05-05 18:59 55.28285 13.79156 24206 ft 458 kts 102°
2026-05-05 18:59 55.27731 13.84679 24601 ft 461 kts 102°
2026-05-05 18:59 55.27173 13.90235 24988 ft 464 kts 102°
2026-05-05 18:59 55.26611 13.95825 25372 ft 467 kts 102°
2026-05-05 19:00 55.26040 14.01448 25746 ft 470 kts 103°
2026-05-05 19:00 55.25466 14.07102 26110 ft 473 kts 103°
2026-05-05 19:00 55.24890 14.12782 26478 ft 475 kts 103°
2026-05-05 19:00 55.24307 14.18505 26836 ft 478 kts 103°
2026-05-05 19:01 55.23717 14.24259 27182 ft 481 kts 103°
2026-05-05 19:01 55.23118 14.30042 27534 ft 484 kts 103°
2026-05-05 19:01 55.22513 14.35860 27876 ft 487 kts 103°
2026-05-05 19:01 55.21904 14.41704 28219 ft 490 kts 103°
2026-05-05 19:02 55.21287 14.47598 28545 ft 493 kts 103°
2026-05-05 19:02 55.20664 14.53508 28868 ft 496 kts 104°
2026-05-05 19:02 55.20032 14.59462 29188 ft 499 kts 104°
2026-05-05 19:02 55.19400 14.65361 29500 ft 502 kts 104°
2026-05-05 19:03 55.18753 14.71387 29813 ft 505 kts 104°
2026-05-05 19:03 55.18101 14.77436 30115 ft 507 kts 104°
2026-05-05 19:03 55.17444 14.83503 30524 ft 506 kts 104°
2026-05-05 19:03 55.16787 14.89548 30835 ft 506 kts 104°
2026-05-05 19:04 55.15477 15.01501 30915 ft 495 kts 104°
2026-05-05 19:04 55.14187 15.13165 30921 ft 493 kts 104°
2026-05-05 19:05 55.12872 15.24937 30926 ft 493 kts 104°
2026-05-05 19:05 55.11545 15.36698 30926 ft 494 kts 104°
2026-05-05 19:06 55.10214 15.48461 30928 ft 493 kts 104°
2026-05-05 19:06 55.08871 15.60204 30916 ft 493 kts 105°
2026-05-05 19:07 55.07743 15.69967 30922 ft 493 kts 105°
2026-05-05 19:07 55.06141 15.83679 30926 ft 493 kts 105°
2026-05-05 19:08 55.04753 15.95390 30927 ft 493 kts 105°
2026-05-05 19:08 55.03430 16.07133 30925 ft 495 kts 99°
2026-05-05 19:09 55.02996 16.19147 30925 ft 497 kts 95°
2026-05-05 19:09 55.02612 16.31177 30919 ft 497 kts 95°
2026-05-05 19:10 55.02220 16.43201 30918 ft 497 kts 96°
2026-05-05 19:10 55.01823 16.55226 30914 ft 497 kts 97°
2026-05-05 19:11 55.01231 16.61113 30913 ft 490 kts 112°
2026-05-05 19:11 54.99943 16.66552 30914 ft 484 kts 121°
2026-05-05 19:11 54.97068 16.77136 30912 ft 484 kts 121°
2026-05-05 19:12 54.94156 16.87705 30861 ft 485 kts 121°
2026-05-05 19:12 54.92698 16.92976 30606 ft 483 kts 121°
2026-05-05 19:12 54.91241 16.98240 30355 ft 482 kts 121°
2026-05-05 19:13 54.89791 17.03473 30111 ft 479 kts 121°
2026-05-05 19:13 54.88349 17.08675 29839 ft 477 kts 121°
2026-05-05 19:13 54.86915 17.13842 29431 ft 473 kts 121°
2026-05-05 19:13 54.85486 17.18972 28812 ft 470 kts 121°
2026-05-05 19:14 54.84067 17.24055 28232 ft 467 kts 121°
2026-05-05 19:14 54.83130 17.27400 27843 ft 464 kts 121°
2026-05-05 19:14 54.81721 17.32422 27264 ft 461 kts 121°
2026-05-05 19:14 54.80319 17.37406 26695 ft 458 kts 121°
2026-05-05 19:15 54.78927 17.42351 26135 ft 455 kts 121°
2026-05-05 19:15 54.77541 17.47264 25584 ft 452 kts 121°
2026-05-05 19:15 54.76160 17.52150 25048 ft 450 kts 121°
2026-05-05 19:15 54.74792 17.56990 24527 ft 447 kts 121°
2026-05-05 19:16 54.73428 17.61807 24020 ft 445 kts 121°
2026-05-05 19:16 54.72067 17.66595 23514 ft 442 kts 121°
2026-05-05 19:16 54.70710 17.71359 22956 ft 440 kts 121°
2026-05-05 19:16 54.69364 17.76078 22464 ft 436 kts 121°
2026-05-05 19:17 54.68026 17.80758 21956 ft 433 kts 121°
2026-05-05 19:17 54.66696 17.85399 21435 ft 430 kts 121°
2026-05-05 19:17 54.65370 17.90021 20919 ft 429 kts 121°
2026-05-05 19:17 54.64046 17.94625 20387 ft 427 kts 120°
2026-05-05 19:18 54.62725 17.99208 19936 ft 424 kts 120°
2026-05-05 19:18 54.61411 18.03746 19373 ft 422 kts 121°
2026-05-05 19:18 54.60120 18.08194 18749 ft 409 kts 120°
2026-05-05 19:18 54.58870 18.12506 18170 ft 395 kts 121°
2026-05-05 19:19 54.57661 18.16677 17498 ft 384 kts 121°
2026-05-05 19:19 54.56476 18.20747 16832 ft 377 kts 121°
2026-05-05 19:19 54.55302 18.24757 16198 ft 372 kts 121°
2026-05-05 19:19 54.54141 18.28721 15565 ft 372 kts 120°
2026-05-05 19:20 54.52974 18.32706 14943 ft 373 kts 120°
2026-05-05 19:20 54.51801 18.36706 14333 ft 373 kts 120°
2026-05-05 19:20 54.50652 18.40630 13731 ft 362 kts 120°
2026-05-05 19:20 54.49534 18.44447 13069 ft 354 kts 120°
2026-05-05 19:21 54.48434 18.48194 12410 ft 348 kts 120°
2026-05-05 19:21 54.47353 18.51864 11771 ft 339 kts 120°
2026-05-05 19:21 54.46299 18.55440 11140 ft 332 kts 119°
2026-05-05 19:21 54.45266 18.58929 10584 ft 323 kts 119°
2026-05-05 19:22 54.44259 18.62319 10049 ft 315 kts 119°
2026-05-05 19:22 54.43273 18.65631 9498 ft 308 kts 119°
2026-05-05 19:22 54.42306 18.68866 8919 ft 301 kts 119°
2026-05-05 19:22 54.41358 18.72038 8339 ft 296 kts 119°
2026-05-05 19:23 54.40428 18.75156 7790 ft 291 kts 118°
2026-05-05 19:23 54.39514 18.78220 7240 ft 286 kts 118°
2026-05-05 19:23 54.38610 18.81237 6700 ft 283 kts 118°
2026-05-05 19:23 54.37715 18.84219 6156 ft 279 kts 118°
2026-05-05 19:24 54.36832 18.87163 5587 ft 276 kts 118°
2026-05-05 19:24 54.35961 18.90070 5106 ft 270 kts 117°
2026-05-05 19:24 54.35196 18.92876 4998 ft 249 kts 114°
2026-05-05 19:24 54.34524 18.95554 5006 ft 244 kts 113°
2026-05-05 19:25 54.33839 18.98211 5002 ft 243 kts 121°
2026-05-05 19:25 54.32715 19.00335 4896 ft 239 kts 148°
2026-05-05 19:25 54.31251 19.01341 4824 ft 224 kts 174°
2026-05-05 19:25 54.29728 19.01206 4777 ft 219 kts 198°
2026-05-05 19:26 54.28393 19.00035 4728 ft 216 kts 222°
2026-05-05 19:26 54.27463 18.98055 4681 ft 214 kts 245°
2026-05-05 19:26 54.27078 18.95611 4634 ft 214 kts 269°
2026-05-05 19:26 54.27262 18.93096 4585 ft 215 kts 283°
2026-05-05 19:27 54.27564 18.90732 4540 ft 215 kts 282°
2026-05-05 19:27 54.27873 18.88276 4481 ft 205 kts 282°
2026-05-05 19:27 54.28169 18.85899 4437 ft 200 kts 282°
2026-05-05 19:27 54.28539 18.83624 4387 ft 198 kts 294°
2026-05-05 19:28 54.29090 18.81454 4340 ft 199 kts 294°
2026-05-05 19:28 54.29631 18.79302 4173 ft 199 kts 294°
2026-05-05 19:28 54.30176 18.77127 3944 ft 198 kts 294°
2026-05-05 19:28 54.30707 18.75002 3699 ft 188 kts 295°
2026-05-05 19:29 54.31177 18.73123 3453 ft 181 kts 295°
2026-05-05 19:29 54.31659 18.71189 3211 ft 173 kts 295°
2026-05-05 19:29 54.32118 18.69337 3037 ft 166 kts 295°
2026-05-05 19:29 54.32562 18.67538 2850 ft 163 kts 295°
2026-05-05 19:30 54.33003 18.65762 2620 ft 160 kts 295°
2026-05-05 19:30 54.33428 18.64056 2440 ft 153 kts 296°
2026-05-05 19:30 54.33838 18.62409 2258 ft 146 kts 296°
2026-05-05 19:30 54.34237 18.60805 2053 ft 145 kts 296°
2026-05-05 19:31 54.34632 18.59219 1843 ft 144 kts 296°
2026-05-05 19:31 54.35026 18.57638 1648 ft 144 kts 297°
2026-05-05 19:31 54.35417 18.56062 1437 ft 143 kts 297°
2026-05-05 19:31 54.35806 18.54497 1224 ft 142 kts 296°
2026-05-05 19:32 54.36193 18.52939 1018 ft 142 kts 296°
2026-05-05 19:32 54.36576 18.51376 791 ft 142 kts 296°
2026-05-05 19:32 54.36963 18.49819 599 ft 141 kts 295°
2026-05-05 19:32 54.37345 18.48294 489 ft 131 kts 296°
2026-05-05 19:33 54.37641 18.47111 459 ft 83 kts 294°
2026-05-05 19:33 54.37797 18.46466 458 ft 34 kts 292°
2026-05-05 19:33 54.37830 18.46333 458 ft 5 kts 294°
2026-05-05 19:33 54.37891 18.46102 458 ft 22 kts 294°
2026-05-05 19:34 54.37970 18.45871 455 ft 24 kts 318°
2026-05-05 19:34 54.38099 18.45717 455 ft 19 kts 327°
2026-05-05 19:34 54.38140 18.45766 455 ft 9 kts 97°
2026-05-05 19:35 54.38101 18.45977 459 ft 9 kts 106°
2026-05-05 19:35 54.38129 18.46075 460 ft 11 kts 36°
2026-05-05 19:35 54.38175 18.46170 460 ft 12 kts 101°
2026-05-05 19:35 54.38140 18.46320 460 ft 12 kts 112°
2026-05-05 19:36 54.38108 18.46447 460 ft 9 kts 113°
2026-05-05 19:36 54.38091 18.46517 457 ft 3 kts 113°
2026-05-05 19:36 54.38093 18.46537 458 ft 0 kts 44°
2026-05-05 19:36 54.38107 18.46543 460 ft 4 kts 19°
2026-05-05 19:37 54.38129 18.46559 460 ft 2 kts 23°
2026-05-05 19:37 54.38130 18.46560 460 ft 0 kts 23°